Regional Weather Roundup
Issued by NWS

Home | Current Version | Previous Version | Text Only | Print | Product List | Glossary On
Versions: 1 2 3 4 5 6 7 8 9 10 11 12 13 14 15 16 17 18 19 20 21 22 23 24 25 26 27 28 29 30 31 32 33 34 35 36 37 38 39 40 41 42 43 44 45 46 47 48 49 50
000
ASUS44 KLUB 062110
RWRTX
WEST TEXAS WEATHER ROUNDUP
NATIONAL WEATHER SERVICE LUBBOCK TX
400 PM CDT FRI MAY 06 2016

NOTE: "FAIR" INDICATES FEW OR NO CLOUDS BELOW 12,000 FEET WITH NO
SIGNIFICANT WEATHER AND/OR OBSTRUCTIONS TO VISIBILITY.

TXZ004-006>008-010-012-014-016-OKZ002-062200-
TEXAS PANHANDLE/OKLAHOMA PANHANDLE

CITY           SKY/WX    TMP DP  RH WIND       PRES   REMARKS
AMARILLO       SUNNY     84  40  21 SE23G35   30.00F
BORGER         SUNNY     86  46  24 S16G31    29.98F
CANADIAN       SUNNY     85  51  30 S16G23    29.98F
DALHART        SUNNY     84  34  16 S29G36    29.99F
DUMAS          SUNNY     83  40  21 S24G33    29.98F
GUYMON         SUNNY     85  44  23 S20G33    29.94F
HEREFORD       SUNNY     86  35  15 S20G36    29.99F
PAMPA          SUNNY     84  46  26 S20G25    30.01F
PERRYTON       SUNNY     87  46  24 S20G25    29.98F
$$

TXZ026-029-035-045-048-062200-
SOUTHERN PANHANDLE/SOUTH PLAINS/ROLLING PLAINS

CITY           SKY/WX    TMP DP  RH WIND       PRES   REMARKS
CHILDRESS      SUNNY     87  47  24 S20G28    29.98F
SEMINOLE       SUNNY     88  34  14 S24G33    29.96F
LUBBOCK        SUNNY     87  35  15 SE30G37   29.97F
PLAINVIEW      SUNNY     85  37  17 S24G33    29.98F
SNYDER           N/A     85  47  26 SE22      30.00F
$$

TXZ052-054-060>062-072-078-127-140-154-169-062200-
PERMIAN BASIN/CONCHO VALLEY/BIG COUNTRY/EDWARDS PLATEAU

CITY           SKY/WX    TMP DP  RH WIND       PRES   REMARKS
ABILENE        SUNNY     84  53  34 S17       30.03F
BIG SPRING     SUNNY     85  42  21 SE23G35   29.99F
BROWNWOOD      SUNNY     82  46  28 SE9G18    30.03F
JUNCTION       SUNNY     87  49  26 SE14      30.01F
MIDLAND        SUNNY     91  33  12 S31G39    29.95F
ODESSA         SUNNY     90  32  12 S26G37    29.95F
SAN ANGELO     SUNNY     89  47  23 SE16G22   29.98F
SONORA         SUNNY     86  43  22 SE16G22   30.05F
SWEETWATER     SUNNY     83  48  29 SE17G25   30.04F
WINK           SUNNY     94  39  14 SE25G43   29.86F
$$

TXZ055-058-074-075-080-082-062200-
FAR WEST/SOUTHWEST MOUNTAINS/TRANS PECOS

CITY           SKY/WX    TMP DP  RH WIND       PRES   REMARKS
ALPINE         SUNNY     89  34  14 S16G28    30.04F
DRYDEN           N/A     93  43  17 SE25G36   29.92F
EL PASO        MOSUNNY   95  12   5 S24G40    29.81F
PECOS          SUNNY     97  35  11 SE15G25   29.81F
PRESIDIO       FAIR      99  37  11 E15G22    29.84F
$$

TXZ014-016-019-021>030-083-062200
TEXAS TECH WEST TEXAS MESONET/TEXAS PANHANDLE/NORTHERN SOUTH PLAINS

CITY           SKY/WX    TMP DP  RH WIND       PRES   REMARKS
ABERNATHY 5ENE   N/A     85  38  19 SE29G38   30.00F
AMARILLO 9NNE    N/A     85  39  19 S23G30    29.97F
AMARILLO 7SSE    N/A     84  40  21 S24G30    30.01F
AMHERST 1NE      N/A     86  29  13 SE26G39   29.97F
BOOTLEG 11WNW    N/A     83  34  16 S22G28    30.00F
CANADIAN 6E      N/A     85  52  32 SE18      29.98F
CAPROCK CYN SP   N/A     85  43  22 S21       30.00F
CHILDRESS 2NNE   N/A     87  49  26 SE17G25   29.99F
CLARENDON 2WSW   N/A     85  45  25 SE21G31   30.00F
CLAUDE 12SW      N/A     84  45  25 SE16      30.01F
DIMMITT 2NE      N/A     86  31  13 SE24G36   30.00F
FLOYDADA 2NNE    N/A     84  37  18 SE22G29   30.01F
FRIONA 2NE       N/A     86  31  14 S25G37    29.99F
GOODLETT 3W      N/A     86  48  26 SE21G28   29.99F
HART 3N          N/A     85  32  15 SE25G35   29.99F
HEREFORD 2NW     N/A     86  30  13 SE21G30   30.00F
MCLEAN 1E        N/A     83  47  27 S18G25    30.01F
MEMPHIS 1NE      N/A     88  45  22 SE20G25   29.99F
MULESHOE 2SSW    N/A     87  28  12 SE28G36   29.98F
OLTON 6S         N/A     86  31  14 SE25G40   29.98F
PALO DURO SP     N/A     85  40  20 SE17      30.01F
PAMPA 2E         N/A     82  47  29 SE18G28   30.02F
PLAINVIEW 1S     N/A     84  36  18 SE23G30   30.00F
SILVERTON 7ESE   N/A     83  43  24 SE22G29   30.00F
TULIA 2ENE       N/A     84  39  20 SE26G36   30.01F
TURKEY 2WSW      N/A     87  46  23 SE21G28   29.99F
UMBARGER 3NNE    N/A     85  38  18 S28G33    30.01F
$$

TXZ033>036-039>041-045>048-062200
TEXAS TECH WEST TEXAS MESONET/SOUTH PLAINS

CITY           SKY/WX    TMP DP  RH WIND       PRES   REMARKS
AIKEN 3WSW       N/A     87  40  19 SE29      30.01F
ANDREWS 2NE      N/A     89  30  12 SE24G36   29.96F
ANTON 6SSW       N/A     89  33  13 SE28G39   29.97F
BROWNFIELD 2S    N/A     86  31  13 SE28G37   29.97F
DENVR CTY 7WNW   N/A     87  29  12 SE25G33   29.96F
GAIL 2ESE        N/A     88  40  19 SE20G29   29.98F
LAMESA 2SE       N/A     88  35  15 SE24      29.98F
LEVELLAND 4S     N/A     88  29  12 SE29G39   29.98F
LUBBOCK 3WNW     N/A     88  33  14 SE20G30   29.99F
MORTON 1ENE      N/A     88  30  12 SE23G38   29.97F
ODONNELL 1N      N/A     87  29  12 SE24G32   29.99F
PLAINS 3N        N/A     87  30  12 SE29G37   29.97F
RALLS 1SE        N/A     86  37  17 SE26      30.02F
REESE CENTER     N/A     86  30  13 SE29G38   29.99F
SEAGRAVES 1SW    N/A     88  30  12 SE25G33   29.96F
SEMINOLE 2NNE    N/A     88  32  13 SE28G39   29.95F
SLATON 2NE       N/A     87  33  14 SE28G37   30.00F
SNYDER 3E        N/A     87  46  23 SE20G25   30.00
SUNDOWN 8SW      N/A     88  30  12 SE26G37   29.97F
TAHOKA 3NNE      N/A     89  35  14 SE23G30   29.99F
WOLFFORTH 6SSW   N/A     89  32  13 SE26G37   29.98F
$$

TXZ031-032-036>038-042>044-062200-
TEXAS TECH WEST TEXAS MESONET/ROLLING PLAINS

CITY           SKY/WX    TMP DP  RH WIND       PRES   REMARKS
ASPERMONT 3NE    N/A     88  47  24 SE15G24   29.99F
FLUVANNA 3WNW    N/A     85  42  22 SE20G25   30.01F
GRAHAM 5SSW      N/A     86  38  18 SE28G38   29.99F
GUTHRIE 10WSW    N/A     88  46  23 S15       29.99F
HASKELL 1NW      N/A     84  47  26 SE14G21   30.01F
JAYTON 1SSE      N/A     89  43  19 S16       29.98F
KNOX CITY 3NW    N/A     88  47  24 SE14G21   30.00F
LK A HENRY 1NW   N/A     87  43  21 SE13      29.99F
NORTHFIELD 1S    N/A     89  48  24 SE16G25   29.98F
ODELL 4ENE       N/A     84  50  30 SE14      30.02F
PADUCAH 10SW     N/A     87  49  26 SE16G25   29.99F
RRING SPRGS 3N   N/A     85  47  27 S14G23    30.01F
SEYMOUR 3NW      N/A     84  50  30 SE14      30.01F
SPUR 1W          N/A     85  41  20 SE17G24   29.99F
WEINERT 2NNE     N/A     87  51  28 SE16      30.01F
WHITE RVR 6NE    N/A     87  42  20 SE18G25   30.00F
$$

TXZ052-054-060>062-072-078-127-140-154-169-062200-
TEXAS TECH WEST TEXAS MESONET/PERMIAN BASIN/
CONCHO VALLEY/BIG COUNTRY/EDWARDS PLATEAU

CITY           SKY/WX    TMP DP  RH WIND       PRES   REMARKS
COYANOSA 2N      N/A     95  40  15 SE26G38   29.87F
JUNCTION 1SSW    N/A     88  52  29 SE15      30.03F
MERTZON 3NNE     N/A     88  48  24 SE15      30.01F
SAN ANGELO 7NW   N/A     89  42  19 SE17G25   30.00F
STRLNG CT 4WSW   N/A     87  46  24 SE18      30.00F
ST LAWRNCE 5SW   N/A     89  38  16 SE28G35   29.99F
SWEETWATR 11SW   N/A     84  52  32 SE17      30.03F
WALL 1E          N/A     89  46  22 SE16G25   30.01F
$$

TXZ055-058-074-075-080-082-062200-
TEXAS TECH WEST TEXAS MESONET/FAR WEST/SOUTHWEST MOUNTAINS/TRANS PECOS

CITY           SKY/WX    TMP DP  RH WIND       PRES   REMARKS
PRSMN GAP BBNP   N/A     96  35  11 SE12      29.90F
GUADLPE MTN NP   N/A     85  27  12 S13       30.03F
$$



USA.gov is the U.S. government's official web portal to all federal, state and local government web resources and services.